Stove Prairie

Current Conditions

Time07/27/2021 04:15 PM MST
Location40.619167,-105.356944
Elevation7,349 FT
Air Temp80°F
Surface Temp109°F
Dew Point Temp30°F
PrecipitationNone None
Relative Humidity16%
Visibility6,562 FT
Pressure783 MB

Click a photo to enlarge.

173°14 mph
Wind from @ 14 mph

Past 24 Hours

All Data

Previous 24h observations for Stove Prairie
Time Air Temp
(°F)
Surface
(°F)
Dew Point
(°F)
Precip. Relative
Humidity
Wind
Direction
Wind
Speed (mph)
Visibility (ft) Pressure
(mb)
04:15 PM8010930None16S146,562783
04:00 PM8011635None20S146,562783
03:45 PM8012435None19S126,562783
03:30 PM8112739None23S136,562783
03:15 PM8012838None23S86,562783
03:00 PM8012839None23S126,562783
02:45 PM8013040None24S156,562783
02:30 PM8013041None25S116,562783
02:15 PM7912841None26S136,562783
02:00 PM7912841None26S116,562783
01:45 PM7912940None26S106,562783
01:30 PM7912740None25S116,562783
01:15 PM7912841None26SSW66,562783
01:00 PM7812540None26S126,562783
12:45 PM7812437None22S116,562783
12:30 PM7812238None24SW36,562783
12:15 PM7812036None23SSW46,562784
12:00 PM7611639None27S96,562784
11:45 AM7611440None28S106,562784
11:30 AM7611040None30SSE106,562784
11:15 AM7510740None29S106,562784
11:00 AM7510641None29S106,562784
10:45 AM7410241None31S96,562784
10:30 AM7410042None31SSE106,562784
10:15 AM749742None32SSE106,562784
10:00 AM749543None33S116,562784
09:45 AM739142None34SSE96,562784
09:30 AM738942None33S106,562784
09:15 AM738641None32S116,562784
09:00 AM738436None26SSE86,562784
08:45 AM728237None27SSE36,562784
08:30 AM687639None34NNE26,562784
08:15 AM667536None33N26,562784
08:00 AM637233None33N36,562784
07:45 AM626838None40N36,562783
07:30 AM616737None41N36,562783
07:15 AM596635None39NNW26,562783
07:00 AM586333None39NNW46,562783
06:45 AM586232None38N26,562783
06:30 AM566333None41NNW36,562783
06:15 AM576233None40N46,562783
06:00 AM566233None42NNW36,562783
05:45 AM576133None41NNW46,562783
05:30 AM576235None43NNW46,562783
05:15 AM586334None42NNW46,562783
05:00 AM586435None41NNW36,562783
04:45 AM576235None43N36,562783
04:30 AM576036None43NNW36,562783
04:15 AM576535None44NNW46,562783
04:00 AM576436None44NNW46,562783
03:45 AM596536None42NW36,562783
03:30 AM586636None42NW46,562783
03:15 AM606635None40NNW46,562783
03:00 AM606835None40NNW36,562783
02:45 AM596635None40NNW36,562783
02:30 AM616835None38NNW36,562783
02:15 AM606735None38NNW26,562783
02:00 AM616935None38NW36,562783
01:45 AM616835None37NW26,562783
12:45 AM636935None33N36,562783
12:30 AM647134None33NNW36,562783
12:15 AM647532None30NNW26,562783
12:00 AM647432None30N06,562783
11:45 PM657532None28NNE26,562783
11:30 PM657433None30N06,562783
11:15 PM667631None27N06,562783
11:00 PM677832None27N06,562783
10:45 PM667832None28N06,562783
10:30 PM678032None28N06,562784
10:15 PM677933None29N06,562784
10:00 PM688134None28N06,562783
09:45 PM698035None28N06,562783
09:30 PM708135None28SSE16,562783
09:15 PM708035None27SSE26,562783
09:00 PM718335None26SE36,562783
08:45 PM718236None27SSE26,562783
08:30 PM738336None26S46,562782
08:15 PM748537None26S66,562782
08:00 PM758437None25S56,562782
07:45 PM768735None23S76,562782
07:30 PM768935None23S86,562782
07:15 PM778935None22S86,562782
07:00 PM789035None21SSW46,562782
06:45 PM789136None22S66,562782
06:30 PM799236None21S116,562781
06:15 PM799436None21S96,562782
06:00 PM799837None22S76,562782
05:45 PM7910137None22S76,562782
05:30 PM7910038None23S116,562782
05:15 PM8010337None22SSE126,562781
05:00 PM8010238None23SSE96,562782
04:45 PM8010139None23S106,562782
04:30 PM8010339None23S76,562782

Red Feather Lakes

Current Conditions

Time07/27/2021 04:00 PM MST
Location40.790278,-105.574167
Elevation8,238 FT
Air Temp77°F
Surface Temp127°F
Dew Point Temp39°F
Relative Humidity25%
Visibility6,562 FT
Pressure759 MB

Click a photo to enlarge.

127°8 mph
Wind from @ 8 mph

Past 24 Hours

All Data

Previous 24h observations for Red Feather Lakes
Time Air Temp
(°F)
Surface
(°F)
Dew Point
(°F)
Precip. Relative
Humidity
Wind
Direction
Wind
Speed (mph)
Visibility (ft) Pressure
(mb)
04:00 PM771273925SE86,562759
03:45 PM781274026SE126,562759
03:30 PM771274127SE86,562759
03:15 PM771284029SSE66,562759
03:00 PM781304229SE76,562759
02:45 PM771304027SE76,562759
02:30 PM771303724SSE96,562759
02:15 PM771313522E96,562759
02:00 PM771323522ESE76,562759
01:45 PM771303422ESE76,562759
01:30 PM771283421ESE86,562759
01:15 PM761263522SSE76,562759
01:00 PM761243019SSE66,562759
12:45 PM751213521SE76,562759
12:30 PM761193321E66,562759
12:15 PM741173524E86,562760
12:00 PM741123726E96,562760
11:45 AM741093524SE96,562760
11:30 AM731073524ENE56,562760
11:15 AM741003525E76,562760
11:00 AM73993525E36,562760
10:45 AM73963423S46,562760
10:30 AM73943021SSE66,562760
10:15 AM72893223E46,562760
10:00 AM72853021SSE56,562760
09:45 AM73813321SE46,562760
09:30 AM72763122SE66,562760
09:15 AM72713324ESE46,562760
09:00 AM71693324ENE36,562760
08:45 AM68663933NNE36,562759
08:30 AM66604446W26,562759
08:15 AM63654043N06,562759
08:00 AM59643847N06,562759
07:45 AM57613544W56,562759
07:30 AM55603444WNW36,562759
07:15 AM53613041SW46,562759
07:00 AM51582943W66,562759
06:45 AM50582842W66,562759
06:30 AM49572844W66,562759
06:15 AM47582846W66,562759
06:00 AM47582747WSW56,562759
05:45 AM47562848WSW66,562759
05:30 AM49572845WSW46,562759
05:15 AM49592843W66,562759
05:00 AM48582948WSW46,562759
04:45 AM49573046WSW36,562759
04:30 AM50592945WSW66,562759
04:15 AM49583048WSW66,562758
04:00 AM49583048WSW46,562759
03:45 AM51613046W76,562759
03:30 AM48613151WSW56,562759
03:15 AM47623153W36,562759
03:00 AM49613049WSW46,562759
02:45 AM51603147WSW46,562759
02:30 AM51633146W66,562759
02:15 AM50633249WSW36,562759
02:00 AM49633355WSW66,562759
01:45 AM48623356W66,562759
01:15 AM53643448NW16,562759
01:00 AM54663345N06,562759
12:45 AM55663242W36,562759
12:30 AM54653346W76,562759
12:15 AM57673341W66,562759
12:00 AM56683442W66,562759
11:45 PM56673547W66,562759
11:30 PM55693649W66,562759
11:15 PM56693649W66,562759
11:00 PM56713749WSW66,562759
10:45 PM56713749WSW56,562759
10:30 PM57693748W66,562759
10:15 PM59693744W66,562759
10:00 PM62733739WNW26,562759
09:45 PM64713637WNW26,562759
09:30 PM66743733WSW16,562759
09:15 PM68743631S36,562759
09:00 PM69773528SSE56,562759
08:45 PM70803527SSE66,562758
08:30 PM70813527SSE46,562758
08:15 PM71823627SSE56,562758
08:00 PM72833728SE46,562758
07:45 PM73853827SSE66,562758
07:30 PM73873727SSE86,562758
07:15 PM74903827SE66,562758
07:00 PM75913827SE66,562758
06:45 PM75943927SE66,562758
06:30 PM76963927ESE76,562758
06:15 PM76993927ESE66,562758
06:00 PM761013825SE66,562758
05:45 PM761033826ESE66,562758
05:30 PM771053825SSE86,562758
05:15 PM771063925SSE76,562758
05:00 PM771103825SE46,562758
04:45 PM771073926SSE66,562758
04:30 PM761093825ESE76,562758

Pinewood Reservoir

Current Conditions

Time07/27/2021 04:00 PM MST
Location40.3647,-105.2867
Elevation6,580 FT
Air Temp83°F
Surface Temp131°F
Dew Point Temp34°F
PrecipitationNone None
Relative Humidity17%
Visibility6,562 FT
Pressure799 MB
Level of Grip82.0
State of Surface4.0

Click a photo to enlarge.

122°10 mph
Wind from @ 10 mph

Past 24 Hours

All Data

Previous 24h observations for Pinewood Reservoir
Time Air Temp
(°F)
Surface
(°F)
Dew Point
(°F)
Precip. Relative
Humidity
Wind
Direction
Wind
Speed (mph)
Visibility (ft) Pressure
(mb)
Level of GripState Surface
04:00 PM8313134None17ESE106,562799824
03:45 PM8213235None19ENE96,562799824
03:30 PM8213336None19ENE96,562799824
03:15 PM8213438None21NE96,562799824
03:00 PM8213636None19NE116,562799824
02:45 PM8213636None20E126,562799824
02:30 PM8113735None19ESE66,562799824
02:15 PM8213639None22ESE66,562799824
02:00 PM8013638None22E86,562799824
01:45 PM8113741None25ESE86,562799824
01:30 PM7913340None25ENE116,562799824
01:15 PM8013340None24ENE86,562799824
01:00 PM7913043None28E116,562799824
12:45 PM7912942None27E126,562799824
12:30 PM7912843None28ENE96,562799824
12:15 PM7812544None29ENE126,562799824
12:00 PM7812344None30ENE96,562799824
11:45 AM7812144None29ENE126,562799824
11:30 AM7911944None29ESE66,562800824
11:15 AM7711543None30E86,562800824
11:00 AM7811342None29ENE116,562800824
10:45 AM7610942None30NE136,562799824
10:30 AM7710842None29NE106,562799824
10:15 AM7610542None29ENE66,562800824
10:00 AM7610241None29ENE86,562800824
09:45 AM7710039None26NE66,562800824
09:30 AM779739None26ESE56,562800824
09:15 AM759438None26NE56,562800824
09:00 AM769138None26ENE46,562799824
08:45 AM768938None25ENE26,562799824
08:30 AM758636None25E36,562799824
08:15 AM748538None26ENE56,562799824
08:00 AM728331None22N06,562799824
07:45 AM697829None23SSW26,562799824
07:30 AM657431None28SW46,562799824
07:15 AM667330None27SW46,562799824
07:00 AM666832None28SW46,562799824
06:45 AM656831None28WSW46,562799824
06:30 AM656732None29WSW46,562799824
06:15 AM656733None30WSW56,562798824
06:00 AM676833None27WSW46,562798824
05:45 AM666933None30WSW36,562798824
05:30 AM666734None30WSW56,562798824
05:15 AM677033None28SW46,562798824
05:00 AM666934None30SW66,562798824
04:45 AM646935None33SSW66,562798824
04:30 AM646835None33SW66,562798824
04:15 AM646934None33SW56,562798824
04:00 AM697134None28WSW56,562798824
03:45 AM687234None28WSW46,562798824
03:30 AM657134None32S56,562798824
03:15 AM626935None36SW56,562798824
03:00 AM667134None31WSW56,562798824
02:45 AM657235None32WSW56,562798824
02:30 AM657135None33SW56,562798824
02:15 AM667235None32WSW46,562798824
02:00 AM677335None30WSW46,562798824
01:45 AM697535None28WSW46,562798824
12:45 AM687436None31WSW46,562799824
12:30 AM677536None31SSW56,562799824
12:15 AM697636None30WSW46,562799824
12:00 AM707736None29SW56,562799824
11:45 PM677835None31SSW56,562799824
11:30 PM657634None31WSW66,562799824
11:15 PM697733None27WSW56,562799824
11:00 PM678031None26WSW56,562799824
10:45 PM667934None30WSW46,562799824
10:30 PM687933None27SW56,562799824
10:15 PM688033None28SW46,562799824
10:00 PM698233None26SW46,562799824
09:45 PM708333None25SW46,562799824
09:30 PM718431None23W46,562799824
09:15 PM738334None24SW26,562798824
09:00 PM778830None18E26,562798824
08:45 PM778931None18SE26,562798824
08:30 PM789031None18SE56,562798824
08:15 PM789133None19ENE16,562798824
08:00 PM799333None19E16,562798824
07:45 PM809433None18ENE46,562798824
07:30 PM809532None18ENE66,562797824
07:15 PM809836None21E66,562797824
07:00 PM8110037None21ENE96,562797824
06:45 PM8110435None19ENE86,562797824
06:30 PM8210634None18NE86,562797824
06:15 PM8210933None17ENE56,562797824
06:00 PM8211132None17ENE56,562797824
05:45 PM8211430None15NE116,562797824
05:30 PM8211630None15E76,562797824
05:15 PM8211832None16NE86,562797824
05:00 PM8212131None16ENE76,562797824
04:45 PM8212233None17NE126,562797824
04:30 PM8312531None16NE86,562797824

Masonville

Current Conditions

Time07/27/2021 12:45 PM MST
Location40.4875,-105.2108
Elevation5,387 FT
Air Temp86°F
Surface Temp132°F
Dew Point Temp48°F
PrecipitationNone None
Relative Humidity27%
Visibility6,562 FT
Pressure839 MB

Click a photo to enlarge.

135°5 mph
Wind from @ 5 mph

Past 24 Hours

All Data

Previous 24h observations for Masonville
Time Air Temp
(°F)
Surface
(°F)
Dew Point
(°F)
Precip. Relative
Humidity
Wind
Direction
Wind
Speed (mph)
Visibility (ft) Pressure
(mb)
12:45 PM8613248None27SE56,562839
11:46 AM8512451None31SE36,562839
11:15 AM8311847None28SSE106,562839
09:45 AM783242None29S60839
09:00 AM753244None34SSE26,562839
08:30 AM32833234SSE50839
08:15 AM32323241SSE30839
08:00 AM687444None42E36,562839
07:46 AM326932E40839
07:31 AM687239None35N26,562839
07:15 AM663238None36N26,562839
07:00 AM677036None32NNW36,562839
06:45 AM673236None33NNW46,562838
06:30 AM32733233NNW40838
06:15 AM677338None34NNW36,562838
06:00 AM667237None35NNW46,562838
05:46 AM323232N00838
05:01 AM667139None36N26,562838
04:45 AM677339None35NNW26,562838
04:30 AM677438None35NNW56,562838
04:15 AM667538None36NW36,562838
03:45 AM677340None37ENE36,562838
03:00 AM667639None36NW36,562838
02:45 AM687339None35W26,562838
02:30 AM687738None33NNW46,562838
01:45 AM677638None34W26,562838
12:45 AM718037None29NNW56,562838
12:30 AM728137None27NNW46,562838
12:00 AM708038None31N06,562838
11:45 PM728237None27NNW36,562838
11:30 PM728337None28NNE56,562838
11:15 PM738537None27NNW46,562838
11:01 PM708338None30N06,562838
10:30 PM718537None30N26,562838
10:15 PM703238None31ESE10838
09:15 PM32323224WNW20838
08:15 PM829639None21W10837
08:00 PM849738None20SE26,562837
07:47 PM8610037None18SE36,562837
07:15 PM8710540None19SE46,562836

Show All Locations

Page refreshes in :